This is the latest recevied weather packets stored in our database for station/object KA3WVU. If no packets are shown the sender has not sent any weather packets the latest 10 day(s).
| Time | Temp. | Humidity | Pressure | Rain* | Wind** | Luminosity | Snow |
|---|---|---|---|---|---|---|---|
| 1777943440 | 15° C | 65% | 1008 hPa | 0 mm | - | 0 W/m² | - |
| 1777943135 | 15.56° C | 65% | 1008 hPa | 0 mm | - | 0 W/m² | - |
| 1777942832 | 15.56° C | 64% | 1008 hPa | 0 mm | - | 0 W/m² | - |
| 1777942528 | 15.56° C | 63% | 1007.8 hPa | 0 mm | - | 0 W/m² | - |
| 1777942226 | 15.56° C | 63% | 1007.9 hPa | 0 mm | - | 0 W/m² | - |
| 1777941923 | 16.11° C | 61% | 1007.9 hPa | 0 mm | - | 0 W/m² | - |
| 1777941620 | 16.11° C | 61% | 1008 hPa | 0 mm | - | 0 W/m² | - |
| 1777941317 | 16.11° C | 60% | 1008 hPa | 0 mm | - | 0 W/m² | - |
| 1777941014 | 16.67° C | 59% | 1008 hPa | 0 mm | - | 0 W/m² | - |
| 1777940709 | 16.11° C | 59% | 1008 hPa | 0 mm | - | 0 W/m² | - |
| 1777940408 | 16.67° C | 59% | 1007.8 hPa | 0 mm | - | 1 W/m² | - |
| 1777940105 | 16.67° C | 57% | 1007.7 hPa | 0 mm | - | 1 W/m² | - |
| 1777939802 | 16.67° C | 57% | 1007.8 hPa | 0 mm | - | 2 W/m² | - |
| 1777939500 | 17.22° C | 57% | 1007.9 hPa | 0 mm | - | 3 W/m² | - |
| 1777939196 | 17.22° C | 55% | 1008 hPa | 0 mm | - | 5 W/m² | - |
| 1777938894 | 17.22° C | 54% | 1007.8 hPa | 0 mm | - | 6 W/m² | - |
| 1777938590 | 17.22° C | 54% | 1007.8 hPa | 0 mm | - | 8 W/m² | - |
| 1777938287 | 17.22° C | 55% | 1007.7 hPa | 0 mm | - | 10 W/m² | - |
| 1777937984 | 17.78° C | 53% | 1007.9 hPa | 0 mm | - | 14 W/m² | - |
| 1777937679 | 17.78° C | 52% | 1007.8 hPa | 0 mm | - | 18 W/m² | - |
| 1777937377 | 17.78° C | 51% | 1007.9 hPa | 0 mm | - | 21 W/m² | - |
| 1777937074 | 18.33° C | 50% | 1007.8 hPa | 0 mm | - | 21 W/m² | - |
| 1777936771 | 18.33° C | 49% | 1007.8 hPa | 0 mm | - | 25 W/m² | - |
| 1777936467 | 18.33° C | 51% | 1007.8 hPa | 0 mm | - | 27 W/m² | - |
| 1777936163 | 18.89° C | 50% | 1007.5 hPa | 0 mm | - | 40 W/m² | - |
* Rain latest hour (hover to see other rain measurements)
** Current wind speed in m/s (hover to see current wind gust speed)